| time (UTC) | temp F | wind direction | speed MPH | gust MPH | rain 1hr in | rain 24hr in | rain mn in | humidity % | barometer mb |
| 20260831050545 | 70 | 0 | 0.0 | 3.0 | 0.00 | 0.00 | 0.00 | 42 | 1019.4 |
| 20260831050103 | 70 | 0 | 0.0 | 1.0 | 0.00 | 0.00 | 0.00 | 43 | 1019.3 |
| 20260831045545 | 71 | 0 | 0.0 | 4.0 | 0.00 | 0.00 | 0.00 | 42 | 1019.3 |
| 20260831045044 | 71 | 0 | 0.0 | 4.0 | 0.00 | 0.00 | 0.00 | 42 | 1019.2 |
| 20260831044602 | 70 | 0 | 0.0 | 3.0 | 0.00 | 0.00 | 0.00 | 43 | 1019.1 |
| 20260831044042 | 70 | 0 | 0.0 | 3.0 | 0.00 | 0.00 | 0.00 | 43 | 1019.1 |
| 20260831043544 | 70 | 0 | 0.0 | 5.0 | 0.00 | 0.00 | 0.00 | 44 | 1019.1 |
| 20260831043057 | 70 | 0 | 0.0 | 5.0 | 0.00 | 0.00 | 0.00 | 44 | 1019.1 |
| 20260831042545 | 70 | 33 | 0.0 | 5.0 | 0.00 | 0.00 | 0.00 | 44 | 1019.1 |
| 20260831042047 | 69 | 356 | 0.0 | 4.0 | 0.00 | 0.00 | 0.00 | 47 | 1019.1 |
| 20260831041610 | 69 | 67 | 0.0 | 4.0 | 0.00 | 0.00 | 0.00 | 50 | 1018.9 |
| 20260831041050 | 69 | 0 | 0.0 | 4.0 | 0.00 | 0.00 | 0.00 | 51 | 1018.9 |
| 20260831040546 | 69 | 341 | 1.0 | 4.0 | 0.00 | 0.00 | 0.00 | 49 | 1018.9 |
| 20260831040107 | 70 | 319 | 1.0 | 4.0 | 0.00 | 0.00 | 0.00 | 48 | 1019.0 |
| 20260831035544 | 70 | 346 | 0.0 | 2.0 | 0.00 | 0.00 | 0.00 | 47 | 1019.0 |
| 20260831035045 | 70 | 0 | 0.0 | 1.0 | 0.00 | 0.00 | 0.00 | 46 | 1019.0 |
| 20260831034607 | 70 | 0 | 0.0 | 1.0 | 0.00 | 0.00 | 0.00 | 45 | 1019.0 |
| 20260831034045 | 70 | 0 | 0.0 | 1.0 | 0.00 | 0.00 | 0.00 | 46 | 1019.0 |
| 20260831033547 | 69 | 0 | 0.0 | 0.0 | 0.00 | 0.00 | 0.00 | 49 | 1019.0 |
| 20260831033102 | 69 | 0 | 0.0 | 0.0 | 0.00 | 0.00 | 0.00 | 50 | 1019.1 |
| 20260831032545 | 69 | 0 | 0.0 | 0.0 | 0.00 | 0.00 | 0.00 | 50 | 1018.9 |
| 20260831032045 | 69 | 0 | 0.0 | 2.0 | 0.00 | 0.00 | 0.00 | 50 | 1019.1 |
| 20260831031558 | 70 | 0 | 0.0 | 2.0 | 0.00 | 0.00 | 0.00 | 49 | 1018.9 |
| 20260831031044 | 70 | 351 | 0.0 | 2.0 | 0.00 | 0.00 | 0.00 | 48 | 1018.9 |
| 20260831030544 | 71 | 0 | 0.0 | 2.0 | 0.00 | 0.00 | 0.00 | 47 | 1019.0 |
| 20260831025544 | 72 | 0 | 0.0 | 3.0 | 0.00 | 0.00 | 0.00 | 44 | 1018.9 |
| 20260831025045 | 73 | 0 | 0.0 | 5.0 | 0.00 | 0.00 | 0.00 | 43 | 1018.9 |
| 20260831024559 | 73 | 17 | 0.0 | 5.0 | 0.00 | 0.00 | 0.00 | 43 | 1018.8 |
| 20260831024045 | 73 | 37 | 0.0 | 3.0 | 0.00 | 0.00 | 0.00 | 42 | 1018.8 |
| 20260831023545 | 73 | 0 | 0.0 | 2.0 | 0.00 | 0.00 | 0.00 | 42 | 1018.8 |
| 20260831023058 | 73 | 0 | 0.0 | 2.0 | 0.00 | 0.00 | 0.00 | 42 | 1018.8 |
| 20260831022550 | 73 | 0 | 0.0 | 2.0 | 0.00 | 0.00 | 0.00 | 42 | 1018.8 |
| 20260831022048 | 73 | 21 | 0.0 | 2.0 | 0.00 | 0.00 | 0.00 | 43 | 1018.8 |
| 20260831021600 | 72 | 0 | 0.0 | 2.0 | 0.00 | 0.00 | 0.00 | 44 | 1018.8 |
| 20260831021042 | 72 | 0 | 0.0 | 2.0 | 0.00 | 0.00 | 0.00 | 44 | 1018.7 |
| 20260831020542 | 72 | 0 | 0.0 | 2.0 | 0.00 | 0.00 | 0.00 | 44 | 1018.8 |
| 20260831015544 | 73 | 0 | 0.0 | 4.0 | 0.00 | 0.00 | 0.00 | 43 | 1018.8 |
| 20260831015044 | 74 | 0 | 2.0 | 4.0 | 0.00 | 0.00 | 0.00 | 42 | 1018.8 |
| 20260831014559 | 74 | 96 | 0.0 | 1.0 | 0.00 | 0.00 | 0.00 | 41 | 1018.8 |
| 20260831014046 | 74 | 0 | 0.0 | 1.0 | 0.00 | 0.00 | 0.00 | 41 | 1018.8 |
| 20260831013542 | 74 | 0 | 0.0 | 1.0 | 0.00 | 0.00 | 0.00 | 41 | 1018.8 |
| 20260831013106 | 74 | 0 | 0.0 | 1.0 | 0.00 | 0.00 | 0.00 | 41 | 1018.8 |
| 20260831012545 | 74 | 0 | 0.0 | 4.0 | 0.00 | 0.00 | 0.00 | 41 | 1018.8 |
| 20260831012050 | 74 | 0 | 0.0 | 4.0 | 0.00 | 0.00 | 0.00 | 41 | 1018.8 |
| 20260831011601 | 74 | 93 | 0.0 | 1.0 | 0.00 | 0.00 | 0.00 | 41 | 1018.8 |
| 20260831011045 | 74 | 0 | 0.0 | 0.0 | 0.00 | 0.00 | 0.00 | 42 | 1018.8 |
| 20260831010544 | 74 | 0 | 0.0 | 0.0 | 0.00 | 0.00 | 0.00 | 42 | 1018.9 |
| 20260831010123 | 74 | 0 | 0.0 | 0.0 | 0.00 | 0.00 | 0.00 | 42 | 1019.0 |
| 20260831005546 | 74 | 0 | 0.0 | 0.0 | 0.00 | 0.00 | 0.00 | 42 | 1019.0 |
| 20260831005045 | 74 | 0 | 0.0 | 0.0 | 0.00 | 0.00 | 0.00 | 42 | 1019.1 |
| 20260831004612 | 74 | 0 | 0.0 | 0.0 | 0.00 | 0.00 | 0.00 | 41 | 1019.0 |
| 20260831004043 | 74 | 0 | 0.0 | 0.0 | 0.00 | 0.00 | 0.00 | 41 | 1019.1 |
| 20260831003545 | 74 | 0 | 0.0 | 1.0 | 0.00 | 0.00 | 0.00 | 41 | 1019.1 |
| 20260831003107 | 75 | 0 | 0.0 | 1.0 | 0.00 | 0.00 | 0.00 | 41 | 1019.1 |
| 20260831002545 | 75 | 0 | 0.0 | 2.0 | 0.00 | 0.00 | 0.00 | 41 | 1018.9 |
| 20260831002046 | 75 | 0 | 0.0 | 2.0 | 0.00 | 0.00 | 0.00 | 41 | 1018.9 |
| 20260831001603 | 75 | 0 | 0.0 | 2.0 | 0.00 | 0.00 | 0.00 | 40 | 1018.8 |
| 20260831001045 | 75 | 0 | 0.0 | 3.0 | 0.00 | 0.00 | 0.00 | 40 | 1018.8 |
| 20260831000545 | 75 | 0 | 0.0 | 3.0 | 0.00 | 0.00 | 0.00 | 40 | 1018.8 |
| 20260831000101 | 75 | 220 | 0.0 | 2.0 | 0.00 | 0.00 | 0.00 | 40 | 1018.9 |
| 20260830235545 | 75 | 220 | 0.0 | 2.0 | 0.00 | 0.00 | 0.00 | 41 | 1018.8 |
| 20260830235045 | 75 | 0 | 0.0 | 2.0 | 0.00 | 0.00 | 0.00 | 41 | 1018.8 |
| 20260830234601 | 75 | 0 | 0.0 | 3.0 | 0.00 | 0.00 | 0.00 | 41 | 1018.9 |
| 20260830234043 | 75 | 220 | 1.0 | 3.0 | 0.00 | 0.00 | 0.00 | 41 | 1018.8 |
| 20260830233545 | 76 | 220 | 0.0 | 3.0 | 0.00 | 0.00 | 0.00 | 41 | 1018.9 |
| 20260830233057 | 76 | 213 | 1.0 | 3.0 | 0.00 | 0.00 | 0.00 | 41 | 1018.9 |
| 20260830232545 | 76 | 213 | 1.0 | 3.0 | 0.00 | 0.00 | 0.00 | 41 | 1018.9 |
| 20260830232044 | 76 | 232 | 1.0 | 4.0 | 0.00 | 0.00 | 0.00 | 41 | 1018.9 |
| 20260830231602 | 76 | 210 | 0.0 | 4.0 | 0.00 | 0.00 | 0.00 | 41 | 1018.8 |
| 20260830231042 | 77 | 210 | 1.0 | 3.0 | 0.00 | 0.00 | 0.00 | 40 | 1018.8 |
| 20260830230542 | 77 | 0 | 0.0 | 2.0 | 0.00 | 0.00 | 0.00 | 41 | 1018.7 |
| 20260830230057 | 77 | 196 | 0.0 | 3.0 | 0.00 | 0.00 | 0.00 | 41 | 1018.7 |
| 20260830225543 | 77 | 196 | 1.0 | 3.0 | 0.00 | 0.00 | 0.00 | 40 | 1018.6 |
| 20260830225043 | 77 | 176 | 1.0 | 3.0 | 0.00 | 0.00 | 0.00 | 40 | 1018.6 |
| 20260830224607 | 77 | 308 | 0.0 | 1.0 | 0.00 | 0.00 | 0.00 | 40 | 1018.5 |
| 20260830224043 | 77 | 0 | 0.0 | 1.0 | 0.00 | 0.00 | 0.00 | 40 | 1018.5 |
| 20260830223543 | 77 | 0 | 0.0 | 1.0 | 0.00 | 0.00 | 0.00 | 41 | 1018.4 |
| 20260830223056 | 77 | 0 | 0.0 | 1.0 | 0.00 | 0.00 | 0.00 | 40 | 1018.4 |
| 20260830222545 | 77 | 0 | 0.0 | 1.0 | 0.00 | 0.00 | 0.00 | 40 | 1018.3 |
| 20260830222045 | 77 | 0 | 0.0 | 1.0 | 0.00 | 0.00 | 0.00 | 41 | 1018.4 |
| 20260830221600 | 77 | 0 | 0.0 | 0.0 | 0.00 | 0.00 | 0.00 | 41 | 1018.4 |
| 20260830221045 | 77 | 0 | 0.0 | 0.0 | 0.00 | 0.00 | 0.00 | 41 | 1018.3 |
| 20260830220543 | 77 | 0 | 0.0 | 0.0 | 0.00 | 0.00 | 0.00 | 41 | 1018.3 |
| 20260830220104 | 77 | 0 | 0.0 | 1.0 | 0.00 | 0.00 | 0.00 | 41 | 1018.4 |
| 20260830215546 | 77 | 0 | 0.0 | 1.0 | 0.00 | 0.00 | 0.00 | 41 | 1018.3 |
| 20260830215046 | 77 | 0 | 0.0 | 1.0 | 0.00 | 0.00 | 0.00 | 41 | 1018.4 |
| 20260830214557 | 77 | 0 | 0.0 | 3.0 | 0.00 | 0.00 | 0.00 | 40 | 1018.3 |
| 20260830214042 | 78 | 0 | 0.0 | 3.0 | 0.00 | 0.00 | 0.00 | 40 | 1018.3 |
| 20260830213545 | 78 | 308 | 0.0 | 3.0 | 0.00 | 0.00 | 0.00 | 40 | 1018.3 |
| 20260830213104 | 78 | 308 | 0.0 | 2.0 | 0.00 | 0.00 | 0.00 | 40 | 1018.1 |
| 20260830212545 | 78 | 0 | 0.0 | 2.0 | 0.00 | 0.00 | 0.00 | 40 | 1018.1 |
| 20260830212043 | 78 | 0 | 0.0 | 2.0 | 0.00 | 0.00 | 0.00 | 40 | 1018.1 |
| 20260830211558 | 78 | 307 | 0.0 | 3.0 | 0.00 | 0.00 | 0.00 | 39 | 1018.1 |
| 20260830211043 | 79 | 0 | 0.0 | 3.0 | 0.00 | 0.00 | 0.00 | 39 | 1018.1 |
| 20260830210543 | 79 | 312 | 0.0 | 2.0 | 0.00 | 0.00 | 0.00 | 38 | 1018.0 |
| 20260830210058 | 79 | 0 | 0.0 | 2.0 | 0.00 | 0.00 | 0.00 | 39 | 1018.0 |
| 20260830205544 | 79 | 0 | 0.0 | 2.0 | 0.00 | 0.00 | 0.00 | 38 | 1018.0 |
| 20260830205045 | 79 | 0 | 0.0 | 3.0 | 0.00 | 0.00 | 0.00 | 38 | 1018.0 |
| 20260830204553 | 79 | 0 | 0.0 | 3.0 | 0.00 | 0.00 | 0.00 | 38 | 1018.0 |
| 20260830204043 | 79 | 0 | 0.0 | 3.0 | 0.00 | 0.00 | 0.00 | 38 | 1017.9 |
| 20260830203543 | 80 | 293 | 0.0 | 3.0 | 0.00 | 0.00 | 0.00 | 37 | 1017.8 |
| 20260830203100 | 80 | 0 | 0.0 | 3.0 | 0.00 | 0.00 | 0.00 | 37 | 1017.8 |
| 20260830202545 | 80 | 300 | 0.0 | 3.0 | 0.00 | 0.00 | 0.00 | 36 | 1017.8 |
| 20260830202044 | 80 | 0 | 0.0 | 3.0 | 0.00 | 0.00 | 0.00 | 35 | 1017.8 |
| 20260830201600 | 80 | 0 | 0.0 | 3.0 | 0.00 | 0.00 | 0.00 | 34 | 1017.8 |
| 20260830201042 | 80 | 0 | 0.0 | 4.0 | 0.00 | 0.00 | 0.00 | 32 | 1017.7 |
| 20260830200543 | 81 | 0 | 0.0 | 4.0 | 0.00 | 0.00 | 0.00 | 31 | 1017.7 |
| 20260830200055 | 81 | 200 | 1.0 | 4.0 | 0.00 | 0.00 | 0.00 | 30 | 1017.6 |
| 20260830195545 | 81 | 234 | 0.0 | 2.0 | 0.00 | 0.00 | 0.00 | 31 | 1017.5 |
| 20260830195042 | 81 | 0 | 0.0 | 3.0 | 0.00 | 0.00 | 0.00 | 30 | 1017.5 |
| 20260830194612 | 81 | 0 | 0.0 | 6.0 | 0.00 | 0.00 | 0.00 | 29 | 1017.4 |
| 20260830194045 | 81 | 292 | 1.0 | 7.0 | 0.00 | 0.00 | 0.00 | 28 | 1017.2 |
| 20260830193545 | 82 | 267 | 1.0 | 8.0 | 0.00 | 0.00 | 0.00 | 28 | 1017.3 |
| 20260830193101 | 82 | 0 | 0.0 | 8.0 | 0.00 | 0.00 | 0.00 | 28 | 1017.2 |
| 20260830192545 | 82 | 236 | 1.0 | 8.0 | 0.00 | 0.00 | 0.00 | 27 | 1017.1 |
| 20260830192043 | 83 | 254 | 0.0 | 4.0 | 0.00 | 0.00 | 0.00 | 27 | 1017.1 |
| 20260830191603 | 83 | 226 | 1.0 | 4.0 | 0.00 | 0.00 | 0.00 | 26 | 1017.1 |
| 20260830191048 | 83 | 294 | 0.0 | 3.0 | 0.00 | 0.00 | 0.00 | 26 | 1017.1 |
| 20260830190543 | 84 | 244 | 0.0 | 7.0 | 0.00 | 0.00 | 0.00 | 26 | 1017.0 |
| 20260830190054 | 84 | 0 | 1.0 | 7.0 | 0.00 | 0.00 | 0.00 | 25 | 1017.0 |
| 20260830185543 | 84 | 0 | 3.0 | 7.0 | 0.00 | 0.00 | 0.00 | 25 | 1016.9 |
| 20260830185044 | 84 | 262 | 2.0 | 7.0 | 0.00 | 0.00 | 0.00 | 25 | 1016.9 |
| 20260830184558 | 84 | 240 | 2.0 | 7.0 | 0.00 | 0.00 | 0.00 | 25 | 1016.8 |
| 20260830184042 | 85 | 224 | 2.0 | 10.0 | 0.00 | 0.00 | 0.00 | 25 | 1016.8 |
| 20260830183545 | 85 | 290 | 1.0 | 10.0 | 0.00 | 0.00 | 0.00 | 24 | 1016.7 |
| 20260830183100 | 85 | 224 | 2.0 | 12.0 | 0.00 | 0.00 | 0.00 | 24 | 1016.7 |
| 20260830182542 | 85 | 222 | 3.0 | 12.0 | 0.00 | 0.00 | 0.00 | 24 | 1016.7 |
| 20260830182042 | 85 | 288 | 6.0 | 12.0 | 0.00 | 0.00 | 0.00 | 24 | 1016.7 |
| 20260830181604 | 86 | 329 | 2.0 | 11.0 | 0.00 | 0.00 | 0.00 | 24 | 1016.6 |
| 20260830181044 | 86 | 237 | 2.0 | 13.0 | 0.00 | 0.00 | 0.00 | 24 | 1016.7 |
| 20260830180543 | 86 | 178 | 1.0 | 13.0 | 0.00 | 0.00 | 0.00 | 24 | 1016.7 |
| 20260830180103 | 86 | 240 | 4.0 | 13.0 | 0.00 | 0.00 | 0.00 | 24 | 1016.7 |
| 20260830175542 | 86 | 180 | 4.0 | 14.0 | 0.00 | 0.00 | 0.00 | 24 | 1016.7 |
| 20260830175043 | 86 | 254 | 4.0 | 14.0 | 0.00 | 0.00 | 0.00 | 24 | 1016.8 |
| 20260830174638 | 86 | 233 | 3.0 | 14.0 | 0.00 | 0.00 | 0.00 | 24 | 1016.7 |
| 20260830174044 | 87 | 288 | 2.0 | 13.0 | 0.00 | 0.00 | 0.00 | 23 | 1016.6 |
| 20260830173544 | 86 | 0 | 2.0 | 13.0 | 0.00 | 0.00 | 0.00 | 24 | 1016.7 |
| 20260830173059 | 87 | 270 | 3.0 | 13.0 | 0.00 | 0.00 | 0.00 | 23 | 1016.7 |
| 20260830172546 | 86 | 243 | 4.0 | 16.0 | 0.00 | 0.00 | 0.00 | 23 | 1016.6 |
| 20260830172045 | 87 | 197 | 5.0 | 16.0 | 0.00 | 0.00 | 0.00 | 23 | 1016.7 |
| 20260830171607 | 87 | 253 | 2.0 | 10.0 | 0.00 | 0.00 | 0.00 | 23 | 1016.7 |
| 20260830171043 | 87 | 222 | 4.0 | 16.0 | 0.00 | 0.00 | 0.00 | 23 | 1016.7 |
| 20260830170543 | 87 | 63 | 2.0 | 16.0 | 0.00 | 0.00 | 0.00 | 23 | 1016.7 |
| 20260830170059 | 87 | 205 | 4.0 | 13.0 | 0.00 | 0.00 | 0.00 | 22 | 1016.7 |
| 20260830165541 | 88 | 209 | 1.0 | 12.0 | 0.00 | 0.00 | 0.00 | 22 | 1016.6 |
| 20260830165045 | 88 | 247 | 3.0 | 11.0 | 0.00 | 0.00 | 0.00 | 22 | 1016.6 |
| 20260830164601 | 88 | 52 | 2.0 | 15.0 | 0.00 | 0.00 | 0.00 | 22 | 1016.6 |
| 20260830164044 | 88 | 243 | 2.0 | 15.0 | 0.00 | 0.00 | 0.00 | 22 | 1016.7 |
| 20260830163545 | 88 | 249 | 4.0 | 10.0 | 0.00 | 0.00 | 0.00 | 22 | 1016.6 |
| 20260830163104 | 88 | 337 | 1.0 | 16.0 | 0.00 | 0.00 | 0.00 | 22 | 1016.6 |
| 20260830162545 | 88 | 12 | 3.0 | 16.0 | 0.00 | 0.00 | 0.00 | 22 | 1016.7 |
| 20260830162042 | 88 | 242 | 5.0 | 16.0 | 0.00 | 0.00 | 0.00 | 22 | 1016.5 |
| 20260830161612 | 88 | 243 | 3.0 | 13.0 | 0.00 | 0.00 | 0.00 | 22 | 1016.6 |
| 20260830161044 | 88 | 284 | 5.0 | 13.0 | 0.00 | 0.00 | 0.00 | 22 | 1016.7 |
| 20260830160546 | 89 | 228 | 2.0 | 11.0 | 0.00 | 0.00 | 0.00 | 22 | 1016.8 |
| 20260830160105 | 88 | 148 | 2.0 | 14.0 | 0.00 | 0.00 | 0.00 | 22 | 1016.7 |
| 20260830155541 | 88 | 205 | 4.0 | 14.0 | 0.00 | 0.00 | 0.00 | 22 | 1016.8 |
| 20260830155042 | 88 | 206 | 3.0 | 15.0 | 0.00 | 0.00 | 0.00 | 22 | 1016.7 |
| 20260830154602 | 88 | 257 | 5.0 | 15.0 | 0.00 | 0.00 | 0.00 | 22 | 1016.9 |
| 20260830154045 | 89 | 346 | 2.0 | 9.0 | 0.00 | 0.00 | 0.00 | 22 | 1016.8 |
| 20260830153544 | 88 | 227 | 3.0 | 16.0 | 0.00 | 0.00 | 0.00 | 23 | 1016.8 |
| 20260830153106 | 88 | 284 | 6.0 | 16.0 | 0.00 | 0.00 | 0.00 | 23 | 1017.0 |
| 20260830152545 | 88 | 124 | 6.0 | 13.0 | 0.00 | 0.00 | 0.00 | 22 | 1016.8 |
| 20260830152043 | 88 | 97 | 2.0 | 20.0 | 0.00 | 0.00 | 0.00 | 22 | 1016.9 |
| 20260830151601 | 88 | 149 | 5.0 | 20.0 | 0.00 | 0.00 | 0.00 | 23 | 1016.9 |
| 20260830151043 | 87 | 167 | 6.0 | 16.0 | 0.00 | 0.00 | 0.00 | 23 | 1017.0 |
| 20260830150542 | 89 | 213 | 3.0 | 14.0 | 0.00 | 0.00 | 0.00 | 22 | 1017.1 |
| 20260830145545 | 88 | 194 | 5.0 | 16.0 | 0.00 | 0.00 | 0.00 | 23 | 1017.1 |
| 20260830145043 | 88 | 235 | 6.0 | 16.0 | 0.00 | 0.00 | 0.00 | 22 | 1017.1 |
| 20260830144605 | 89 | 263 | 4.0 | 14.0 | 0.00 | 0.00 | 0.00 | 22 | 1017.1 |
| 20260830144045 | 89 | 351 | 2.0 | 17.0 | 0.00 | 0.00 | 0.00 | 24 | 1017.1 |
| 20260830143543 | 87 | 216 | 4.0 | 17.0 | 0.00 | 0.00 | 0.00 | 25 | 1017.2 |
| 20260830143100 | 87 | 201 | 6.0 | 15.0 | 0.00 | 0.00 | 0.00 | 25 | 1017.3 |
| 20260830142543 | 87 | 195 | 5.0 | 13.0 | 0.00 | 0.00 | 0.00 | 24 | 1017.4 |
| 20260830142043 | 88 | 184 | 4.0 | 12.0 | 0.00 | 0.00 | 0.00 | 24 | 1017.4 |
| 20260830141608 | 88 | 351 | 1.0 | 9.0 | 0.00 | 0.00 | 0.00 | 24 | 1017.4 |
| 20260830141044 | 88 | 221 | 2.0 | 9.0 | 0.00 | 0.00 | 0.00 | 24 | 1017.5 |
| 20260830140543 | 87 | 341 | 4.0 | 12.0 | 0.00 | 0.00 | 0.00 | 25 | 1017.6 |
| 20260830140117 | 87 | 272 | 6.0 | 16.0 | 0.00 | 0.00 | 0.00 | 25 | 1017.6 |
| 20260830135545 | 87 | 72 | 5.0 | 17.0 | 0.00 | 0.00 | 0.00 | 25 | 1017.7 |
| 20260830135042 | 86 | 233 | 6.0 | 17.0 | 0.00 | 0.00 | 0.00 | 25 | 1017.8 |
| 20260830134558 | 87 | 209 | 6.0 | 14.0 | 0.00 | 0.00 | 0.00 | 24 | 1017.9 |
| 20260830134042 | 87 | 0 | 5.0 | 16.0 | 0.00 | 0.00 | 0.00 | 25 | 1017.8 |
| 20260830133542 | 87 | 232 | 2.0 | 16.0 | 0.00 | 0.00 | 0.00 | 25 | 1017.8 |
| 20260830133055 | 86 | 274 | 8.0 | 16.0 | 0.00 | 0.00 | 0.00 | 26 | 1017.8 |
| 20260830132542 | 88 | 215 | 1.0 | 14.0 | 0.00 | 0.00 | 0.00 | 25 | 1017.9 |
| 20260830132044 | 87 | 289 | 2.0 | 14.0 | 0.00 | 0.00 | 0.00 | 26 | 1017.9 |
| 20260830131607 | 87 | 211 | 3.0 | 12.0 | 0.00 | 0.00 | 0.00 | 26 | 1018.0 |
| 20260830131043 | 87 | 311 | 4.0 | 12.0 | 0.00 | 0.00 | 0.00 | 26 | 1018.2 |
| 20260830130545 | 87 | 164 | 4.0 | 14.0 | 0.00 | 0.00 | 0.00 | 26 | 1018.1 |
| 20260830130103 | 87 | 291 | 3.0 | 14.0 | 0.00 | 0.00 | 0.00 | 25 | 1018.2 |
| 20260830125544 | 87 | 0 | 2.0 | 9.0 | 0.00 | 0.00 | 0.00 | 26 | 1018.2 |
| 20260830125042 | 86 | 176 | 3.0 | 9.0 | 0.00 | 0.00 | 0.00 | 27 | 1018.2 |
| 20260830124601 | 86 | 329 | 1.0 | 9.0 | 0.00 | 0.00 | 0.00 | 27 | 1018.3 |
| 20260830124046 | 86 | 264 | 2.0 | 14.0 | 0.00 | 0.00 | 0.00 | 28 | 1018.4 |
| 20260830123545 | 85 | 220 | 4.0 | 14.0 | 0.00 | 0.00 | 0.00 | 28 | 1018.5 |
| 20260830123059 | 84 | 158 | 3.0 | 11.0 | 0.00 | 0.00 | 0.00 | 29 | 1018.4 |
| 20260830122545 | 83 | 177 | 5.0 | 12.0 | 0.00 | 0.00 | 0.00 | 29 | 1018.5 |
| 20260830122045 | 83 | 198 | 6.0 | 12.0 | 0.00 | 0.00 | 0.00 | 29 | 1018.5 |
| 20260830121601 | 83 | 176 | 7.0 | 12.0 | 0.00 | 0.00 | 0.00 | 29 | 1018.5 |
| 20260830121044 | 84 | 207 | 6.0 | 15.0 | 0.00 | 0.00 | 0.00 | 28 | 1018.6 |
| 20260830120542 | 84 | 239 | 4.0 | 15.0 | 0.00 | 0.00 | 0.00 | 29 | 1018.7 |
| 20260830120107 | 83 | 212 | 3.0 | 15.0 | 0.00 | 0.00 | 0.00 | 29 | 1018.7 |
| 20260830115545 | 83 | 176 | 7.0 | 13.0 | 0.00 | 0.00 | 0.00 | 29 | 1018.7 |
| 20260830115043 | 84 | 0 | 6.0 | 13.0 | 0.00 | 0.00 | 0.00 | 28 | 1018.7 |
| 20260830114600 | 85 | 292 | 0.0 | 13.0 | 0.00 | 0.00 | 0.00 | 28 | 1018.8 |
| 20260830114044 | 84 | 205 | 1.0 | 15.0 | 0.00 | 0.00 | 0.00 | 29 | 1018.8 |
| 20260830113543 | 83 | 259 | 7.0 | 15.0 | 0.00 | 0.00 | 0.00 | 29 | 1018.9 |
| 20260830113100 | 84 | 64 | 1.0 | 10.0 | 0.00 | 0.00 | 0.00 | 28 | 1018.8 |
| 20260830112545 | 83 | 351 | 5.0 | 15.0 | 0.00 | 0.00 | 0.00 | 29 | 1018.8 |
| 20260830112048 | 82 | 242 | 3.0 | 15.0 | 0.00 | 0.00 | 0.00 | 29 | 1018.8 |
| 20260830111557 | 82 | 215 | 5.0 | 11.0 | 0.00 | 0.00 | 0.00 | 29 | 1018.8 |
| 20260830111043 | 81 | 226 | 2.0 | 7.0 | 0.00 | 0.00 | 0.00 | 30 | 1018.8 |
| 20260830110543 | 80 | 0 | 2.0 | 10.0 | 0.00 | 0.00 | 0.00 | 30 | 1018.9 |
| 20260830110100 | 80 | 228 | 4.0 | 11.0 | 0.00 | 0.00 | 0.00 | 31 | 1018.8 |
| 20260830105547 | 79 | 174 | 5.0 | 11.0 | 0.00 | 0.00 | 0.00 | 31 | 1018.8 |
| 20260830105046 | 79 | 213 | 4.0 | 11.0 | 0.00 | 0.00 | 0.00 | 31 | 1018.9 |
| 20260830104602 | 80 | 216 | 2.0 | 10.0 | 0.00 | 0.00 | 0.00 | 30 | 1018.9 |
| 20260830104045 | 81 | 214 | 2.0 | 8.0 | 0.00 | 0.00 | 0.00 | 30 | 1019.0 |
| 20260830103549 | 80 | 172 | 1.0 | 8.0 | 0.00 | 0.00 | 0.00 | 30 | 1019.1 |
| 20260830103100 | 80 | 0 | 1.0 | 8.0 | 0.00 | 0.00 | 0.00 | 30 | 1019.1 |
| 20260830102544 | 79 | 207 | 3.0 | 8.0 | 0.00 | 0.00 | 0.00 | 31 | 1019.1 |
| 20260830102042 | 78 | 185 | 2.0 | 6.0 | 0.00 | 0.00 | 0.00 | 32 | 1019.1 |
| 20260830101607 | 79 | 178 | 3.0 | 6.0 | 0.00 | 0.00 | 0.00 | 31 | 1019.1 |
| 20260830101042 | 79 | 0 | 0.0 | 5.0 | 0.00 | 0.00 | 0.00 | 31 | 1019.1 |
| 20260830100542 | 78 | 232 | 2.0 | 5.0 | 0.00 | 0.00 | 0.00 | 31 | 1019.1 |
| 20260830100101 | 77 | 0 | 1.0 | 7.0 | 0.00 | 0.00 | 0.00 | 31 | 1019.2 |
| 20260830095543 | 76 | 12 | 2.0 | 7.0 | 0.00 | 0.00 | 0.00 | 32 | 1019.2 |
| 20260830095049 | 76 | 175 | 3.0 | 5.0 | 0.00 | 0.00 | 0.00 | 32 | 1019.2 |
| 20260830094628 | 77 | 166 | 1.0 | 5.0 | 0.00 | 0.00 | 0.00 | 31 | 1019.3 |
| 20260830094044 | 77 | 222 | 1.0 | 5.0 | 0.00 | 0.00 | 0.00 | 31 | 1019.3 |
| 20260830093542 | 75 | 0 | 2.0 | 5.0 | 0.00 | 0.00 | 0.00 | 33 | 1019.4 |
| 20260830093058 | 77 | 183 | 1.0 | 5.0 | 0.00 | 0.00 | 0.00 | 31 | 1019.4 |
| 20260830092542 | 75 | 0 | 2.0 | 5.0 | 0.00 | 0.00 | 0.00 | 32 | 1019.4 |
| 20260830092045 | 76 | 0 | 0.0 | 3.0 | 0.00 | 0.00 | 0.00 | 33 | 1019.4 |
| 20260830091601 | 74 | 0 | 0.0 | 3.0 | 0.00 | 0.00 | 0.00 | 34 | 1019.4 |
| 20260830091048 | 74 | 0 | 0.0 | 3.0 | 0.00 | 0.00 | 0.00 | 33 | 1019.4 |
| 20260830090545 | 74 | 0 | 0.0 | 2.0 | 0.00 | 0.00 | 0.00 | 33 | 1019.5 |
| 20260830090107 | 73 | 0 | 1.0 | 3.0 | 0.00 | 0.00 | 0.00 | 34 | 1019.4 |
| 20260830085545 | 74 | 0 | 0.0 | 3.0 | 0.00 | 0.00 | 0.00 | 34 | 1019.4 |
| 20260830085043 | 74 | 209 | 0.0 | 4.0 | 0.00 | 0.00 | 0.00 | 33 | 1019.4 |
| 20260830084608 | 72 | 0 | 1.0 | 4.0 | 0.00 | 0.00 | 0.00 | 35 | 1019.4 |
| 20260830084043 | 73 | 0 | 0.0 | 2.0 | 0.00 | 0.00 | 0.00 | 34 | 1019.4 |
| 20260830083544 | 71 | 0 | 0.0 | 3.0 | 0.00 | 0.00 | 0.00 | 37 | 1019.5 |
| 20260830083112 | 70 | 0 | 1.0 | 4.0 | 0.00 | 0.00 | 0.00 | 37 | 1019.4 |
| 20260830082544 | 70 | 174 | 1.0 | 4.0 | 0.00 | 0.00 | 0.00 | 37 | 1019.4 |
| 20260830082046 | 72 | 177 | 0.0 | 2.0 | 0.00 | 0.00 | 0.00 | 35 | 1019.4 |
| 20260830081559 | 72 | 0 | 0.0 | 2.0 | 0.00 | 0.00 | 0.00 | 36 | 1019.4 |
| 20260830081043 | 70 | 35 | 0.0 | 2.0 | 0.00 | 0.00 | 0.00 | 38 | 1019.4 |
| 20260830080544 | 69 | 0 | 0.0 | 2.0 | 0.00 | 0.00 | 0.00 | 38 | 1019.4 |
| 20260830075543 | 69 | 0 | 0.0 | 2.0 | 0.00 | 0.00 | 0.00 | 38 | 1019.5 |
| 20260830075042 | 69 | 0 | 0.0 | 3.0 | 0.00 | 0.00 | 0.00 | 38 | 1019.4 |
| 20260830074601 | 69 | 34 | 0.0 | 3.0 | 0.00 | 0.00 | 0.00 | 38 | 1019.3 |
| 20260830074044 | 68 | 41 | 0.0 | 3.0 | 0.00 | 0.00 | 0.00 | 39 | 1019.3 |
| 20260830073544 | 68 | 0 | 0.0 | 3.0 | 0.00 | 0.00 | 0.00 | 40 | 1019.3 |
| 20260830073055 | 67 | 0 | 1.0 | 4.0 | 0.00 | 0.00 | 0.00 | 40 | 1019.3 |
| 20260830072545 | 67 | 141 | 1.0 | 4.0 | 0.00 | 0.00 | 0.00 | 39 | 1019.2 |
| 20260830072042 | 67 | 126 | 0.0 | 3.0 | 0.00 | 0.00 | 0.00 | 39 | 1019.2 |
| 20260830071616 | 67 | 0 | 0.0 | 3.0 | 0.00 | 0.00 | 0.00 | 39 | 1019.2 |
| 20260830071045 | 66 | 0 | 0.0 | 4.0 | 0.00 | 0.00 | 0.00 | 40 | 1019.2 |
| 20260830070544 | 66 | 134 | 1.0 | 4.0 | 0.00 | 0.00 | 0.00 | 40 | 1019.2 |
| 20260830070104 | 66 | 176 | 1.0 | 4.0 | 0.00 | 0.00 | 0.00 | 40 | 1019.1 |
| 20260830065542 | 66 | 0 | 0.0 | 2.0 | 0.00 | 0.00 | 0.00 | 40 | 1019.0 |
| 20260830065042 | 67 | 25 | 0.0 | 2.0 | 0.00 | 0.00 | 0.00 | 40 | 1019.0 |
| 20260830064559 | 66 | 65 | 0.0 | 4.0 | 0.00 | 0.00 | 0.00 | 40 | 1018.9 |
| 20260830064046 | 65 | 0 | 0.0 | 4.0 | 0.00 | 0.00 | 0.00 | 41 | 1018.9 |
| 20260830063545 | 65 | 0 | 0.0 | 3.0 | 0.00 | 0.00 | 0.00 | 41 | 1018.8 |
| 20260830063104 | 65 | 151 | 0.0 | 4.0 | 0.00 | 0.00 | 0.00 | 41 | 1018.8 |
| 20260830062542 | 65 | 0 | 0.0 | 4.0 | 0.00 | 0.00 | 0.00 | 41 | 1018.8 |
| 20260830062044 | 65 | 159 | 0.0 | 2.0 | 0.00 | 0.00 | 0.00 | 41 | 1018.7 |
| 20260830061558 | 65 | 0 | 0.0 | 1.0 | 0.00 | 0.00 | 0.00 | 41 | 1018.7 |
| 20260830061042 | 65 | 0 | 0.0 | 1.0 | 0.00 | 0.00 | 0.00 | 41 | 1018.7 |
| 20260830060542 | 65 | 0 | 0.0 | 2.0 | 0.00 | 0.00 | 0.00 | 41 | 1018.6 |
| 20260830055544 | 66 | 0 | 0.0 | 2.0 | 0.00 | 0.00 | 0.00 | 40 | 1018.7 |
| 20260830055044 | 66 | 157 | 0.0 | 2.0 | 0.00 | 0.00 | 0.00 | 40 | 1018.6 |
| 20260830054606 | 66 | 0 | 0.0 | 2.0 | 0.00 | 0.00 | 0.00 | 40 | 1018.7 |
| 20260830054042 | 66 | 0 | 0.0 | 2.0 | 0.00 | 0.00 | 0.00 | 40 | 1018.7 |
| 20260830053542 | 66 | 0 | 0.0 | 2.0 | 0.00 | 0.00 | 0.00 | 39 | 1018.6 |
| 20260830053110 | 66 | 191 | 0.0 | 2.0 | 0.00 | 0.00 | 0.00 | 40 | 1018.5 |
| 20260830052543 | 65 | 0 | 0.0 | 1.0 | 0.00 | 0.00 | 0.00 | 41 | 1018.5 |
| 20260830052044 | 66 | 0 | 0.0 | 3.0 | 0.00 | 0.00 | 0.00 | 41 | 1018.5 |
| 20260830051602 | 66 | 0 | 0.0 | 3.0 | 0.00 | 0.00 | 0.00 | 40 | 1018.5 |
| 20260830051043 | 66 | 40 | 0.0 | 3.0 | 0.00 | 0.00 | 0.00 | 39 | 1018.5 |